{"data":{"norad_id":58162,"epoch":"2026-09-20T21:59:08.019456Z","epoch_age_seconds":104421,"freshness":"FRESH","line1":"1 58162U 23166N   26263.91606504 -.00041246  00000+0 -12139-2 0  9996","line2":"2 58162  53.1632  31.7957 0001059  85.2492 274.8632 15.34460649163083","mean_motion":15.34460649,"eccentricity":0.0001059,"inclination_deg":53.1632,"raan_deg":31.7957,"arg_perigee_deg":85.2492,"mean_anomaly_deg":274.8632,"bstar":-0.0012139,"rev_number":16308,"period_min":93.844048782772,"perigee_km":461.79855864288,"apogee_km":463.24741042761,"semimajor_km":6840.6599845352,"source":"CELESTRAK","updated_at":"2026-09-21T09:00:33.798050Z"}}